This is the latest recevied weather packets stored in our database for station/object N0HOT. If no packets are shown the sender has not sent any weather packets the latest 10 day(s).
| Time | Temp. | Humidity | Pressure | Rain* | Wind** | Luminosity | Snow |
|---|---|---|---|---|---|---|---|
| 1777828130 | 23.33° C | 27% | 1005.6 hPa | 0 mm | - | 894 W/m² | - |
| 1777827826 | 22.78° C | 28% | 1005.3 hPa | 0 mm | - | 871 W/m² | - |
| 1777827523 | 22.78° C | 26% | 1005.3 hPa | 0 mm | - | 900 W/m² | - |
| 1777827221 | 22.22° C | 26% | 1005.3 hPa | 0 mm | - | 913 W/m² | - |
| 1777826917 | 22.22° C | 26% | 1005.6 hPa | 0 mm | - | 815 W/m² | - |
| 1777826615 | 22.22° C | 27% | 1005.6 hPa | 0 mm | - | 886 W/m² | - |
| 1777826310 | 22.22° C | 28% | 1005.6 hPa | 0 mm | - | 1697 W/m² | - |
| 1777826008 | 22.22° C | 30% | 1005.6 hPa | 0 mm | - | 1392 W/m² | - |
| 1777825705 | 22.22° C | 28% | 1005.6 hPa | 0 mm | - | 668 W/m² | - |
| 1777825403 | 22.22° C | 26% | 1005.6 hPa | 0 mm | - | 650 W/m² | - |
| 1777825100 | 22.22° C | 29% | 1005.6 hPa | 0 mm | - | 715 W/m² | - |
| 1777824796 | 21.67° C | 28% | 1006 hPa | 0 mm | - | 793 W/m² | - |
| 1777824493 | 21.67° C | 27% | 1005.6 hPa | 0 mm | - | 811 W/m² | - |
| 1777824189 | 21.67° C | 28% | 1005.3 hPa | 0 mm | - | 825 W/m² | - |
| 1777823884 | 21.11° C | 28% | 1005.6 hPa | 0 mm | - | 852 W/m² | - |
| 1777823583 | 20.56° C | 28% | 1006 hPa | 0 mm | - | 850 W/m² | - |
| 1777823279 | 20.56° C | 29% | 1005.6 hPa | 0 mm | - | 829 W/m² | - |
| 1777822977 | 20.56° C | 29% | 1005.6 hPa | 0 mm | - | 792 W/m² | - |
| 1777822675 | 20° C | 30% | 1006 hPa | 0 mm | - | 730 W/m² | - |
| 1777822373 | 20° C | 30% | 1006 hPa | 0 mm | - | 737 W/m² | - |
| 1777822070 | 19.44° C | 29% | 1006 hPa | 0 mm | - | 738 W/m² | - |
| 1777821768 | 19.44° C | 30% | 1006 hPa | 0 mm | - | 681 W/m² | - |
| 1777821464 | 18.89° C | 32% | 1006 hPa | 0 mm | - | 679 W/m² | - |
| 1777821162 | 18.33° C | 30% | 1006.3 hPa | 0 mm | - | 665 W/m² | - |
| 1777820859 | 17.78° C | 33% | 1006.3 hPa | 0 mm | - | 639 W/m² | - |
* Rain latest hour (hover to see other rain measurements)
** Current wind speed in m/s (hover to see current wind gust speed)